ATLAS 5 CENTAUR DEB, 46647

Orbit data source: Space-Track

ATLAS 5 CENTAUR DEB, 46647 is space debris in HEO originally from a launch on Wed, 17 Sep 2014 UTC launched from the Air Force Eastern Test Range (AFETR). Debris objects in space refer to the collection of defunct objects orbiting the Earth. Examples of debris include non-operational satellites, rocket bodies, and fragments generated from explosions, collisions, or faulty payload assembly.

Loading next visibility...
Identifier
46647, 2014-055CX
Orbit
HEO
Country
Flag of USUS
Related business
Flag of USUnited Launch Alliance/Lockheed Martin (US)
Manufacturer
Unknown
Mission
Spacecraft
Bus & Motor
Unknown
Mass
Unknown
Launch date (UTC)
2014-09-17 (12 years ago)
Launch vehicle
Unknown
Launch site
Air Force Eastern Test Range (AFETR)
Object type
Payload
Rocket body
Debris
Shape & HBR
Unknown shape, 1.1 m
Radar Cross Section
RCS unknown

Expand to show TLE details & history
Last TLE update: 1 week ago

TLE from 1 week ago
0 ATLAS 5 CENTAUR DEB
1 46647U 14055CX  26247.17442697 -.00000112  00000-0  00000-0 0  9998
2 46647  20.0966 140.0203 4766344 170.0890 204.3397  1.84053756 39639
Epoch: 2026-09-04T04:11Z
TLE epoch observation values (Epoch: 2026-09-04T04:11:10.490Z)
Latitude
0.00003°
Longitude
93.93146°
Altitude
34,611.437 km
Speed
2.297 km/s
True Right ascension
09h 20m 06s
True Declination
0° 00' 00"
Sunlit
Object was in daylight at epoch
Visualization orbit readout
Latitude
Unknown
Longitude
Unknown
Altitude
Unknown
Speed
Unknown
Apparent Right ascension
Unknown
Apparent Declination
Unknown
Sunlit
N/A
Visualization observer readout
Local Sidereal Time
01:42:49
Azimuth
Unknown
Elevation
Unknown
Doppler factor
Unknown
Orbital elements
Apogee altitude
35,156.261 km
Perigee altitude
8,342.958 km
Semi-major axis
28,127.746 km
Eccentricity
0.47663
Inclination
20.0966°
RAAN
140.0203°
Arg. of periapsis
170.089°
True anomaly
189.90171°
Mean anomaly
204.3397°
Eccentric anomaly
196.5573°
Mean motion
0.46009 °/min
Orbital period
782.46 mins
BSTAR
0
Loading maneuver chart data...
Computing Atmospheric mass density...

Documentation

Showing up to 5 results
|